Tracking 35275 objects as of 9-Sep-2026
HD Live streaming from Space Station
objects crossing your sky now

CINEMA

Track CINEMA now!
10-day predictions
CINEMA is classified as:


NORAD ID: 38764
Int'l Code: 2012-048G
Launch date: September 13, 2012
Source: United States (US)
Launch site: AIR FORCE WESTERN TEST RANGE (AFWTR)
Your satellite tracking list
Your tracking list is empty




NASA's NSSDC Master Catalog

Two Line Element Set (TLE):
1 38764U 12048G   26251.91115039  .00041796  00000-0  64793-3 0  9997
2 38764  64.6411 158.7764 0025853 148.1439 212.1273 15.53394256130222
Source of the keplerian elements: AFSPC